[[{"header":{"parameterUnit":"m.s-1","parameterCategory":1,"la1":30.2991,"la2":30.254,"lo1":-89.0895,"lo2":-89.0444,"dy":0.0017,"dx":0.0017,"nx":28,"ny":28,"refTime":"2024-05-12T21:00:00:Z","depth":0,"parameterNumber":2,"parameterNumberName":"U-component_of_WINDS"},"data":[0,0,0,0,0,0,0,0,0,0,0,0,0,0,0,0,0,0,0,0,0,0,0,0,0,0,0,0,0,0,0,0,0,0,0,0,0,0,0,0,0,0,0,0,0,0,0,0,0,0,0,0,0,0,0,0,0,0,-4.3431,-4.3432,0,-4.3574,-4.3575,-4.3577,-4.3593,-4.3591,-4.359,-4.3588,-4.3736,-4.3741,-4.3746,0,0,0,0,0,0,0,0,0,0,0,0,0,-4.3172,-4.3177,-4.343,-4.3432,-4.3434,-4.3573,-4.3575,-4.3577,-4.3593,-4.3591,-4.3589,-4.3588,-4.3734,-4.374,-4.3747,0,0,0,0,0,0,0,0,0,0,0,0,0,-4.3297,-4.3179,-4.343,-4.3459,-4.3463,-4.3573,-4.3575,-4.3578,-4.3593,-4.3591,-4.3589,-4.3587,-4.3732,-4.374,-4.3748,-4.384,0,0,-4.3772,-4.3775,0,0,0,0,0,0,0,0,-4.329,-4.3306,-4.3453,-4.3457,-4.3461,-4.3563,-4.3539,-4.3666,-4.3594,-4.3544,-4.3588,-4.3586,-4.368,-4.3692,-4.3724,-4.3847,-4.3853,-4.3773,-4.3777,-4.3781,-4.3783,0,0,0,0,0,0,0,-4.3281,-4.33,-4.3487,-4.3455,-4.346,-4.3465,-4.348,-4.3563,-4.3622,-4.3548,-4.3549,-4.3566,-4.3682,-4.3716,-4.3728,-4.3855,-4.3772,-4.3779,-4.3784,-4.3787,-4.4062,-4.4064,0,0,0,0,0,0,-4.3267,-4.3293,-4.3483,-4.3491,-4.3368,-4.3471,-4.3488,-4.3533,-4.3622,-4.3633,-4.3568,-4.3566,-4.3704,-4.3718,-4.3733,-4.3846,-4.3781,-4.3788,-4.3793,-4.4059,-4.4062,-4.4065,0,0,0,0,0,0,-4.3261,-4.3284,-4.3477,-4.3393,-4.3418,-4.3478,-4.3528,-4.3537,-4.3571,-4.3637,-4.3647,-4.3591,-4.3703,-4.3722,-4.3813,-4.3852,-4.3792,-4.3799,-4.4056,-4.406,-4.4064,-4.4074,0,0,0,0,0,0,-4.3254,-4.3282,-4.3317,-4.3393,-4.3422,-4.3554,-4.353,-4.3541,-4.3584,-4.3583,-4.3662,-4.3672,-4.3702,-4.3801,-4.3821,-4.3861,-4.3805,-4.4053,-4.4058,-4.4062,-4.407,-4.4078,-4.4084,0,0,0,0,0,-4.3245,-4.3314,-4.3319,-4.3341,-4.3467,-4.3556,-4.3573,-4.3606,-4.3587,-4.3623,-4.3666,-4.367,-4.3845,-4.3811,-4.3833,-4.3876,-4.4051,-4.4057,-4.4062,-4.4067,-4.4076,-4.4084,0,0,0,0,0,0,-4.3241,-4.3325,-4.333,-4.3427,-4.3484,-4.3559,-4.3605,-4.3614,-4.3678,-4.3675,-4.3713,-4.3731,-4.3821,-4.3858,-4.3819,-4.3971,-4.3946,-4.3956,-4.3942,-4.3951,-4.3958,-4.3946,-4.3812,0,0,0,0,0,-4.3251,-4.3316,-4.3386,-4.3465,-4.3493,-4.3544,-4.3584,-4.3605,-4.3666,-4.3691,-4.374,-4.38,-4.3868,-4.3912,-4.3979,-4.4077,-4.4094,-4.4118,-4.4124,-4.413,-4.4138,-4.4192,-4.4203,-4.4084,-4.4084,-4.4084,0,0,-4.3273,-4.3327,-4.3366,-4.3465,-4.3512,-4.3579,-4.3565,-4.3636,-4.3686,-4.3702,-4.379,-4.3829,-4.3898,-4.3993,-4.4038,-4.4027,-4.4175,-4.4137,-4.414,-4.4146,-4.4199,-4.421,-4.422,-4.4088,-4.4087,-4.4086,0,0,-4.3347,-4.3395,-4.3465,-4.3512,-4.3584,-4.3617,-4.3634,-4.3708,-4.3734,-4.3824,-4.3837,-4.3898,-4.4015,-4.4064,-4.4104,-4.4197,-4.4203,-4.4218,-4.4252,-4.4305,-4.4314,-4.4323,-4.4355,-4.4366,-4.4226,-4.4227,-4.4227,0,-4.3365,-4.3466,-4.35,-4.3571,-4.3614,-4.3632,-4.3703,-4.3748,-4.3837,-4.3867,-4.3854,-4.4002,-4.405,-4.4156,-4.4179,-4.4211,-4.4232,-4.4208,-4.431,-4.4319,-4.4328,-4.4359,-4.4371,-4.4228,-4.4228,-4.4227,-4.4227,0,-4.3484,-4.3554,-4.3602,-4.3687,-4.3737,-4.3808,-4.3853,-4.3899,-4.3916,-4.3951,-4.4042,-4.4101,-4.418,-4.4207,-4.4224,-4.4316,-4.4307,-4.4302,-4.4278,-4.4339,-4.4369,-4.4382,-4.4229,-4.4229,-4.4229,-4.4228,0,0,-4.3558,-4.3662,-4.3679,-4.3718,-4.3798,-4.3853,-4.3925,-4.4002,-4.404,-4.4102,-4.4163,-4.4262,-4.4258,-4.4304,-4.4327,-4.4373,-4.4443,-4.4362,-4.4365,-4.4374,-4.4547,-4.4549,-4.4562,-4.4448,-4.4451,-4.4453,-4.4541,0,-4.364,-4.3767,-4.3801,-4.3909,-4.3974,-4.3993,-4.4055,-4.4112,-4.4147,-4.4208,-4.4248,-4.4317,-4.4306,-4.4334,-4.4381,-4.4424,-4.4478,-4.4419,-4.4505,-4.4508,-4.4485,-4.4578,-4.4581,-4.4661,-4.4553,-4.4555,-4.4556,0,-4.3752,-4.3815,-4.393,-4.4002,-4.403,-4.4086,-4.4159,-4.4217,-4.4282,-4.4304,-4.4356,-4.4375,-4.4451,-4.4425,-4.453,-4.4489,-4.4527,-4.4554,-4.4558,-4.4566,-4.4534,-4.4587,-4.4688,-4.4699,-4.4575,-4.4574,-4.4573,0,-4.3792,-4.3907,-4.399,-4.4023,-4.411,-4.4148,-4.4186,-4.4249,-4.4293,-4.4358,-4.4386,-4.4459,-4.4499,-4.4555,-4.4593,-4.4571,-4.4696,-4.4672,-4.4716,-4.4715,-4.474,-4.4738,-4.4846,-4.4767,-4.4767,-4.4767,-4.4767,0,-4.3879,-4.3948,-4.4009,-4.406,-4.4139,-4.4177,-4.4254,-4.4293,-4.4349,-4.4408,-4.443,-4.4485,-4.4533,-4.4595,-4.4626,-4.4709,-4.4727,-4.4747,-4.4754,-4.4744,-4.4742,-4.4768,-4.4763,-4.477,-4.4769,-4.4769,-4.4768,0,-4.3937,-4.3981,-4.4072,-4.4147,-4.4167,-4.4222,-4.4286,-4.4337,-4.4373,-4.4448,-4.4468,-4.4526,-4.46,-4.4644,-4.4739,-4.476,-4.485,-4.4856,-4.4828,-4.4831,-4.4872,-4.4867,-4.5,-4.5019,-4.4928,-4.4929,-4.493,0,-4.3989,-4.4042,-4.4122,-4.4163,-4.4202,-4.4268,-4.4312,-4.4353,-4.4399,-4.4477,-4.4519,-4.4594,-4.4657,-4.4775,-4.4825,-4.4898,-4.4904,-4.4946,-4.4915,-4.4904,-4.4904,-4.4899,-4.4904,-4.4951,-4.4951,-4.4952,-4.4953,0,-4.4076,-4.4094,-4.4158,-4.4229,-4.4282,-4.434,-4.4398,-4.4431,-4.4481,-4.4532,-4.4608,-4.4657,-4.4753,-4.4828,-4.4904,-4.4944,-4.4957,-4.4962,-4.4976,-4.4965,-4.4946,-4.4956,-4.484,-4.4959,-4.4958,-4.4957,-4.4957,-4.4957,-4.4131,-4.4179,-4.4243,-4.4313,-4.4361,-4.4415,-4.4466,-4.4509,-4.4573,-4.4653,-4.4674,-4.4754,-4.4818,-4.4922,-4.4964,-4.5028,-4.5021,-4.5041,-4.5046,-4.505,-4.505,-4.4938,-4.5042,-4.5042,-4.5042,-4.5042,-4.5042,0,-4.4218,-4.426,-4.4324,-4.4404,-4.4459,-4.4467,-4.4531,-4.4577,-4.4647,-4.4705,-4.4766,-4.4854,-4.4927,-4.4983,-4.5058,-4.5098,-4.5106,-4.5116,-4.5113,-4.5122,-4.5053,-4.5032,-4.5109,-4.5109,-4.5109,-4.5109,-4.5109,-4.5108,-4.427,-4.4351,-4.4378,-4.4484,-4.4526,-4.4603,-4.464,-4.469,-4.4736,-4.4833,-4.4893,-4.4929,-4.4988,-4.5067,-4.5134,-4.5149,-4.5175,-4.5184,-4.52,-4.5134,-4.5127,-4.512,-4.5101,-4.519,-4.519,-4.5264,-4.5265,-4.5265]},{"header":{"parameterUnit":"m.s-1","parameterCategory":1,"la1":30.2991,"la2":30.254,"lo1":-89.0895,"lo2":-89.0444,"dy":0.0017,"dx":0.0017,"nx":28,"ny":28,"refTime":"2024-05-12T21:00:00:Z","depth":0,"parameterNumber":3,"parameterNumberName":"V-component_of_WINDS"},"data":[0,0,0,0,0,0,0,0,0,0,0,0,0,0,0,0,0,0,0,0,0,0,0,0,0,0,0,0,0,0,0,0,0,0,0,0,0,0,0,0,0,0,0,0,0,0,0,0,0,0,0,0,0,0,0,0,0,0,6.8601,6.8602,0,6.8709,6.871,6.8712,6.8657,6.8654,6.8651,6.8649,6.8755,6.876,6.8766,0,0,0,0,0,0,0,0,0,0,0,0,0,6.8343,6.8348,6.8601,6.8602,6.8604,6.8709,6.871,6.8712,6.8657,6.8654,6.865,6.8647,6.8753,6.876,6.8766,0,0,0,0,0,0,0,0,0,0,0,0,0,6.8453,6.8349,6.8601,6.8589,6.8589,6.8709,6.8711,6.8712,6.8658,6.8654,6.865,6.8646,6.8751,6.8759,6.8767,6.8903,0,0,6.8792,6.8796,0,0,0,0,0,0,0,0,6.8447,6.8463,6.8589,6.859,6.859,6.8665,6.8658,6.8776,6.8659,6.8632,6.8648,6.8644,6.8728,6.8738,6.8768,6.8908,6.8912,6.8793,6.8798,6.8801,6.8804,0,0,0,0,0,0,0,6.8439,6.8458,6.8643,6.8591,6.8592,6.8577,6.8588,6.868,6.8702,6.8634,6.863,6.8644,6.8728,6.876,6.877,6.8914,6.8793,6.88,6.8805,6.8808,6.917,6.9175,0,0,0,0,0,0,6.8433,6.8452,6.864,6.8647,6.8507,6.8585,6.8598,6.8645,6.8701,6.8706,6.8647,6.8641,6.8748,6.876,6.8773,6.8935,6.8801,6.8809,6.8814,6.9165,6.9171,6.9176,0,0,0,0,0,0,6.8428,6.845,6.8636,6.8548,6.8571,6.8594,6.8648,6.865,6.8682,6.8712,6.8715,6.8677,6.8745,6.8762,6.8871,6.8938,6.8813,6.882,6.916,6.9167,6.9174,6.9261,0,0,0,0,0,0,6.842,6.8449,6.8501,6.855,6.8576,6.8733,6.8653,6.8655,6.8697,6.8689,6.874,6.8744,6.8743,6.8859,6.8879,6.8947,6.8827,6.9154,6.9163,6.9171,6.9252,6.927,6.9285,0,0,0,0,0,6.8411,6.8521,6.8504,6.8527,6.8642,6.8737,6.8752,6.875,6.8702,6.8755,6.8774,6.8742,6.8928,6.8871,6.8893,6.8964,6.915,6.9161,6.9171,6.9244,6.9266,6.9285,0,0,0,0,0,0,6.8478,6.8527,6.8509,6.8638,6.8684,6.8728,6.8794,6.8773,6.8832,6.8823,6.8816,6.8828,6.8942,6.8964,6.89,6.9098,6.9031,6.9047,6.908,6.9101,6.9117,6.9109,6.8833,0,0,0,0,0,6.8507,6.8582,6.862,6.873,6.8754,6.8771,6.8812,6.8806,6.8853,6.8872,6.8899,6.8945,6.9013,6.9058,6.9123,6.9255,6.9265,6.9315,6.9332,6.9345,6.9358,6.943,6.9452,6.9211,6.9211,6.9211,0,0,6.8569,6.8605,6.8652,6.8744,6.8779,6.8855,6.8787,6.887,6.8926,6.8884,6.8989,6.9011,6.9061,6.9183,6.9238,6.9205,6.9427,6.9359,6.9369,6.9375,6.9443,6.9466,6.9486,6.9218,6.9217,6.9216,0,0,6.872,6.8756,6.8851,6.8888,6.8943,6.8953,6.8976,6.9024,6.9037,6.9143,6.9113,6.9179,6.9297,6.9334,6.9368,6.9535,6.9508,6.9556,6.9642,6.9712,6.9731,6.9748,6.9806,6.9827,6.9569,6.9569,6.957,0,6.879,6.8904,6.8902,6.8988,6.9029,6.8996,6.9092,6.9127,6.92,6.9228,6.9191,6.9339,6.9371,6.95,6.9541,6.957,6.9595,6.955,6.9729,6.9745,6.9761,6.9817,6.9839,6.9575,6.9574,6.9574,6.9573,0,6.8987,6.9067,6.9137,6.9209,6.9258,6.9348,6.9358,6.9408,6.9398,6.9412,6.952,6.9557,6.9629,6.9659,6.965,6.9788,6.9766,6.9729,6.9661,6.9789,6.9842,6.9863,6.9583,6.9581,6.9579,6.9578,0,0,6.9182,6.9253,6.9278,6.9311,6.9369,6.943,6.9519,6.959,6.9632,6.9684,6.9757,6.9858,6.9825,6.9864,6.9859,6.992,7.0049,6.9875,6.9876,6.9905,7.0201,7.0228,7.0253,7.0031,7.0035,7.0039,7.0197,0,6.9336,6.9493,6.9494,6.9637,6.971,6.9681,6.9758,6.9801,6.9817,6.988,6.9896,6.9968,6.9919,6.9942,7.0001,7.002,7.0108,7.0009,7.0098,7.0101,7.0086,7.0281,7.0309,7.0457,7.0217,7.0221,7.0223,0,6.9538,6.9597,6.9749,6.9796,6.9827,6.9897,6.9962,7.0024,7.0072,7.0079,7.0123,7.0109,7.0198,7.0128,7.025,7.0183,7.022,7.0235,7.024,7.0247,7.0169,7.0292,7.0504,7.0526,7.0256,7.0253,7.0251,0,6.9664,6.9782,6.9888,6.9916,6.9975,7.0024,7.0051,7.0095,7.0138,7.0195,7.0223,7.0289,7.0325,7.0376,7.0379,7.0329,7.0502,7.0433,7.0509,7.0509,7.0546,7.0543,7.0765,7.0571,7.0571,7.057,7.057,0,6.9836,6.993,6.9945,7.001,7.0114,7.0113,7.0215,7.0237,7.0277,7.0345,7.0323,7.0387,7.0388,7.0453,7.0456,7.0556,7.0573,7.058,7.0579,7.0581,7.058,7.0604,7.0594,7.0576,7.0575,7.0574,7.0573,0,6.9995,7.0009,7.0122,7.0169,7.0183,7.0257,7.0296,7.0357,7.0371,7.0457,7.0477,7.0498,7.0574,7.0583,7.067,7.0672,7.0792,7.0781,7.0777,7.0774,7.085,7.0842,7.1094,7.1127,7.0912,7.0914,7.0916,0,7.0103,7.0175,7.023,7.0274,7.0304,7.0376,7.042,7.0422,7.0468,7.0529,7.0583,7.0657,7.0715,7.0837,7.0859,7.0926,7.0916,7.0999,7.0925,7.0925,7.0916,7.0911,7.0918,7.1013,7.1016,7.1018,7.1019,0,7.0295,7.0298,7.0363,7.0432,7.0485,7.0539,7.0589,7.0626,7.0634,7.0688,7.0765,7.0811,7.0901,7.0974,7.104,7.1065,7.1044,7.1043,7.1063,7.1066,7.106,7.1063,7.0815,7.1036,7.1035,7.1033,7.1032,7.1032,7.0431,7.0493,7.0542,7.0615,7.0653,7.07,7.076,7.0782,7.0847,7.0922,7.0919,7.1004,7.105,7.1136,7.1167,7.1233,7.1205,7.1235,7.1243,7.125,7.1258,7.105,7.1245,7.1244,7.1244,7.1243,7.1243,0,7.0621,7.0651,7.0718,7.0789,7.0847,7.0823,7.0878,7.0927,7.1003,7.1048,7.1107,7.1196,7.1266,7.1295,7.1363,7.1411,7.1402,7.1429,7.1425,7.1431,7.1279,7.1254,7.1434,7.1434,7.1434,7.1434,7.1434,7.1434,7.0726,7.083,7.0839,7.0961,7.099,7.1074,7.1107,7.115,7.1187,7.1287,7.1347,7.1365,7.1404,7.1475,7.1539,7.1545,7.1571,7.1601,7.1603,7.1461,7.1441,7.1423,7.1399,7.1607,7.1607,7.175,7.1751,7.1752]}]]